Year,Month,Day,Hour,Minute,Value (Times are PST for barometer in hPa)
2021,10,25,00,00,985.27
2021,10,25,00,01,985.24
2021,10,25,00,02,985.30
2021,10,25,00,03,985.36
2021,10,25,00,04,985.21
2021,10,25,00,05,985.37
2021,10,25,00,06,985.41
2021,10,25,00,07,985.41
2021,10,25,00,08,985.30
2021,10,25,00,09,985.51
2021,10,25,00,10,985.35
2021,10,25,00,11,985.50
2021,10,25,00,12,985.27
2021,10,25,00,13,985.34
2021,10,25,00,14,985.54
2021,10,25,00,15,985.44
2021,10,25,00,16,985.44
2021,10,25,00,17,985.41
2021,10,25,00,18,985.30
2021,10,25,00,19,985.27
2021,10,25,00,20,985.20
2021,10,25,00,21,985.34
2021,10,25,00,22,985.41
2021,10,25,00,23,985.37
2021,10,25,00,24,985.44
2021,10,25,00,25,985.44
2021,10,25,00,26,985.51
2021,10,25,00,27,985.44
2021,10,25,00,28,985.51
2021,10,25,00,29,985.51
2021,10,25,00,30,985.41
2021,10,25,00,31,985.54
2021,10,25,00,32,985.51
2021,10,25,00,33,985.51
2021,10,25,00,34,985.54
2021,10,25,00,35,985.54
2021,10,25,00,36,985.67
2021,10,25,00,37,985.54
2021,10,25,00,38,985.57
2021,10,25,00,39,985.61
2021,10,25,00,40,985.57
2021,10,25,00,41,985.54
2021,10,25,00,42,985.57
2021,10,25,00,43,985.47
2021,10,25,00,44,985.54
2021,10,25,00,45,985.53
2021,10,25,00,46,985.34
2021,10,25,00,47,985.47
2021,10,25,00,48,985.37
2021,10,25,00,49,985.37
2021,10,25,00,50,985.30
2021,10,25,00,51,985.34
2021,10,25,00,52,985.44
2021,10,25,00,53,985.47
2021,10,25,00,54,985.47
2021,10,25,00,55,985.44
2021,10,25,00,56,985.37
2021,10,25,00,57,985.47
2021,10,25,00,58,985.44
2021,10,25,00,59,985.37
2021,10,25,01,00,985.41
2021,10,25,01,01,985.44
2021,10,25,01,02,985.36
2021,10,25,01,03,985.24
2021,10,25,01,04,985.34
2021,10,25,01,05,985.34
2021,10,25,01,06,985.41
2021,10,25,01,07,985.41
2021,10,25,01,08,985.34
2021,10,25,01,09,985.44
2021,10,25,01,10,985.38
2021,10,25,01,11,985.51
2021,10,25,01,12,985.51
2021,10,25,01,13,985.61
2021,10,25,01,14,985.56
2021,10,25,01,15,985.42
2021,10,25,01,16,985.57
2021,10,25,01,17,985.47
2021,10,25,01,18,985.47
2021,10,25,01,19,985.47
2021,10,25,01,20,985.51
2021,10,25,01,21,985.37
2021,10,25,01,22,985.41
2021,10,25,01,23,985.41
2021,10,25,01,24,985.43
2021,10,25,01,25,985.27
2021,10,25,01,26,985.41
2021,10,25,01,27,985.54
2021,10,25,01,28,985.51
2021,10,25,01,29,985.51
2021,10,25,01,30,985.57
2021,10,25,01,31,985.57
2021,10,25,01,32,985.57
2021,10,25,01,33,985.61
2021,10,25,01,34,985.52
2021,10,25,01,35,985.68
2021,10,25,01,36,985.57
2021,10,25,01,37,985.68
2021,10,25,01,38,985.78
2021,10,25,01,39,985.64
2021,10,25,01,40,985.68
2021,10,25,01,41,985.58
2021,10,25,01,42,985.71
2021,10,25,01,43,985.78
2021,10,25,01,44,985.71
2021,10,25,01,45,985.78
2021,10,25,01,46,985.69
2021,10,25,01,47,985.87
2021,10,25,01,48,985.71
2021,10,25,01,49,985.68
2021,10,25,01,50,985.74
2021,10,25,01,51,985.71
2021,10,25,01,52,985.71
2021,10,25,01,53,985.61
2021,10,25,01,54,985.63
2021,10,25,01,55,985.47
2021,10,25,01,56,985.54
2021,10,25,01,57,985.52
2021,10,25,01,58,985.74
2021,10,25,01,59,985.68
2021,10,25,02,00,985.71
2021,10,25,02,01,985.74
2021,10,25,02,02,985.68
2021,10,25,02,03,985.78
2021,10,25,02,04,985.78
2021,10,25,02,05,985.94
2021,10,25,02,06,985.61
2021,10,25,02,07,985.71
2021,10,25,02,08,985.68
2021,10,25,02,09,985.68
2021,10,25,02,10,985.81
2021,10,25,02,11,985.74
2021,10,25,02,12,985.74
2021,10,25,02,13,985.78
2021,10,25,02,14,985.78
2021,10,25,02,15,985.85
2021,10,25,02,16,985.91
2021,10,25,02,17,985.88
2021,10,25,02,18,985.91
2021,10,25,02,19,985.74
2021,10,25,02,20,985.88
2021,10,25,02,21,985.88
2021,10,25,02,22,985.88
2021,10,25,02,23,985.85
2021,10,25,02,24,985.95
2021,10,25,02,25,985.91
2021,10,25,02,26,985.98
2021,10,25,02,27,985.91
2021,10,25,02,28,985.98
2021,10,25,02,29,986.01
2021,10,25,02,30,985.85
2021,10,25,02,31,985.95
2021,10,25,02,32,985.91
2021,10,25,02,33,986.05
2021,10,25,02,34,986.02
2021,10,25,02,35,986.08
2021,10,25,02,36,986.12
2021,10,25,02,37,986.02
2021,10,25,02,38,986.15
2021,10,25,02,39,986.08
2021,10,25,02,40,986.02
2021,10,25,02,41,986.08
2021,10,25,02,42,986.08
2021,10,25,02,43,986.08
2021,10,25,02,44,986.15
2021,10,25,02,45,986.09
2021,10,25,02,46,986.22
2021,10,25,02,47,986.18
2021,10,25,02,48,986.05
2021,10,25,02,49,986.08
2021,10,25,02,50,986.18
2021,10,25,02,51,986.15
2021,10,25,02,52,986.08
2021,10,25,02,53,986.12
2021,10,25,02,54,986.08
2021,10,25,02,55,986.18
2021,10,25,02,56,986.08
2021,10,25,02,57,986.22
2021,10,25,02,58,986.25
2021,10,25,02,59,986.15
2021,10,25,03,00,986.22
2021,10,25,03,01,986.23
2021,10,25,03,02,986.39
2021,10,25,03,03,986.32
2021,10,25,03,04,986.31
2021,10,25,03,05,986.13
2021,10,25,03,06,986.35
2021,10,25,03,07,986.22
2021,10,25,03,08,986.32
2021,10,25,03,09,986.29
2021,10,25,03,10,986.35
2021,10,25,03,11,986.42
2021,10,25,03,12,986.32
2021,10,25,03,13,986.32
2021,10,25,03,14,986.39
2021,10,25,03,15,986.42
2021,10,25,03,16,986.48
2021,10,25,03,17,986.35
2021,10,25,03,18,986.39
2021,10,25,03,19,986.49
2021,10,25,03,20,986.55
2021,10,25,03,21,986.33
2021,10,25,03,22,986.46
2021,10,25,03,23,986.46
2021,10,25,03,24,986.46
2021,10,25,03,25,986.52
2021,10,25,03,26,986.55
2021,10,25,03,27,986.36
2021,10,25,03,28,986.62
2021,10,25,03,29,986.56
2021,10,25,03,30,986.46
2021,10,25,03,31,986.56
2021,10,25,03,32,986.48
2021,10,25,03,33,986.35
2021,10,25,03,34,986.42
2021,10,25,03,35,986.46
2021,10,25,03,36,986.35
2021,10,25,03,37,986.39
2021,10,25,03,38,986.49
2021,10,25,03,39,986.52
2021,10,25,03,40,986.49
2021,10,25,03,41,986.40
2021,10,25,03,42,986.52
2021,10,25,03,43,986.62
2021,10,25,03,44,986.56
2021,10,25,03,45,986.62
2021,10,25,03,46,986.69
2021,10,25,03,47,986.66
2021,10,25,03,48,986.73
2021,10,25,03,49,986.69
2021,10,25,10,02,989.94
2021,10,25,10,03,989.84
2021,10,25,10,04,989.88
2021,10,25,10,05,989.77
2021,10,25,10,06,989.81
2021,10,25,10,07,989.67
2021,10,25,10,08,989.71
2021,10,25,10,09,989.74
2021,10,25,10,10,989.84
2021,10,25,10,11,989.84
2021,10,25,10,12,989.81
2021,10,25,10,13,989.74
2021,10,25,10,14,989.67
2021,10,25,10,15,989.71
2021,10,25,10,16,989.84
2021,10,25,10,17,989.77
2021,10,25,10,18,989.81
2021,10,25,10,19,989.77
2021,10,25,10,20,989.74
2021,10,25,10,21,989.67
2021,10,25,10,22,989.74
2021,10,25,10,23,989.64
2021,10,25,10,24,989.60
2021,10,25,10,25,989.54
2021,10,25,10,26,989.74
2021,10,25,10,27,989.64
2021,10,25,10,28,989.64
2021,10,25,10,29,989.60
2021,10,25,10,30,989.81
2021,10,25,10,31,989.71
2021,10,25,10,32,989.81
2021,10,25,10,33,989.74
2021,10,25,10,34,989.81
2021,10,25,10,35,989.74
2021,10,25,10,36,989.64
2021,10,25,10,37,989.81
2021,10,25,10,38,989.77
2021,10,25,10,39,989.65
2021,10,25,10,40,989.77
2021,10,25,10,41,989.67
2021,10,25,10,42,989.77
2021,10,25,10,43,989.81
2021,10,25,10,44,989.84
2021,10,25,10,45,989.88
2021,10,25,10,46,989.94
2021,10,25,10,47,989.94
2021,10,25,10,48,989.94
2021,10,25,10,49,989.98
2021,10,25,10,50,990.08
2021,10,25,10,51,989.91
2021,10,25,10,52,989.98
2021,10,25,10,53,989.98
2021,10,25,10,54,989.91
2021,10,25,10,55,989.94
2021,10,25,10,56,989.88
2021,10,25,10,57,989.94
2021,10,25,10,58,989.74
2021,10,25,10,59,989.84
2021,10,25,11,00,989.88
2021,10,25,11,01,989.91
2021,10,25,11,02,989.98
2021,10,25,11,03,989.88
2021,10,25,11,04,989.81
2021,10,25,11,05,989.81
2021,10,25,11,06,989.88
2021,10,25,11,07,989.81
2021,10,25,11,08,989.84
2021,10,25,11,09,989.74
2021,10,25,11,10,990.03
2021,10,25,11,11,989.81
2021,10,25,11,12,989.84
2021,10,25,11,13,989.88
2021,10,25,11,14,989.81
2021,10,25,11,15,989.81
2021,10,25,11,16,989.88
2021,10,25,11,17,990.01
2021,10,25,11,18,989.98
2021,10,25,11,19,989.91
2021,10,25,11,20,990.04
2021,10,25,11,21,989.98
2021,10,25,11,22,989.94
2021,10,25,11,23,990.01
2021,10,25,11,24,989.94
2021,10,25,11,25,990.04
2021,10,25,11,26,989.98
2021,10,25,11,27,989.94
2021,10,25,11,28,990.32
2021,10,25,11,29,990.15
2021,10,25,11,30,990.11
2021,10,25,11,31,990.15
2021,10,25,11,32,990.12
2021,10,25,11,33,990.28
2021,10,25,11,34,990.15
2021,10,25,11,35,990.18
2021,10,25,11,36,990.21
2021,10,25,11,37,990.18
2021,10,25,11,38,990.25
2021,10,25,11,39,990.25
2021,10,25,11,40,990.21
2021,10,25,11,41,990.15
2021,10,25,11,42,990.25
2021,10,25,11,43,990.38
2021,10,25,11,44,990.42
2021,10,25,11,45,990.35
2021,10,25,11,46,990.55
2021,10,25,11,47,990.42
2021,10,25,11,48,990.45
2021,10,25,11,49,990.35
2021,10,25,11,50,990.42
2021,10,25,11,51,990.49
2021,10,25,11,52,990.59
2021,10,25,11,53,990.45
2021,10,25,11,54,990.62
2021,10,25,11,55,990.52
2021,10,25,11,56,990.52
2021,10,25,11,57,990.65
2021,10,25,11,58,990.65
2021,10,25,11,59,990.55
2021,10,25,12,00,990.62
2021,10,25,12,01,990.76
2021,10,25,12,02,990.59
2021,10,25,12,03,990.69
2021,10,25,12,04,990.65
2021,10,25,12,05,990.62
2021,10,25,12,06,990.55
2021,10,25,12,07,990.59
2021,10,25,12,08,990.59
2021,10,25,12,09,990.65
2021,10,25,12,10,990.69
2021,10,25,12,11,990.62
2021,10,25,12,12,990.49
2021,10,25,12,13,990.59
2021,10,25,12,14,990.59
2021,10,25,12,15,990.65
2021,10,25,12,16,990.55
2021,10,25,12,17,990.65
2021,10,25,12,18,990.65
2021,10,25,12,19,990.65
2021,10,25,12,20,990.69
2021,10,25,12,21,990.65
2021,10,25,12,22,990.76
2021,10,25,12,23,990.76
2021,10,25,12,24,990.72
2021,10,25,12,25,990.79
2021,10,25,12,26,990.76
2021,10,25,12,27,990.89
2021,10,25,12,28,990.72
2021,10,25,12,29,990.79
2021,10,25,12,30,990.72
2021,10,25,12,31,990.72
2021,10,25,12,32,990.76
2021,10,25,12,33,990.72
2021,10,25,12,34,990.76
2021,10,25,12,35,990.69
2021,10,25,12,36,990.76
2021,10,25,12,37,990.89
2021,10,25,12,38,990.82
2021,10,25,12,39,990.86
2021,10,25,12,40,990.72
2021,10,25,12,41,990.89
2021,10,25,12,42,990.79
2021,10,25,12,43,990.93
2021,10,25,12,44,990.86
2021,10,25,12,45,990.89
2021,10,25,12,46,990.76
2021,10,25,12,47,990.96
2021,10,25,12,48,990.93
2021,10,25,12,49,990.86
2021,10,25,12,50,990.82
2021,10,25,12,51,990.76
2021,10,25,12,52,990.69
2021,10,25,12,53,990.62
2021,10,25,12,54,990.55
2021,10,25,12,55,990.62
2021,10,25,12,56,990.59
2021,10,25,12,57,990.65
2021,10,25,12,58,990.55
2021,10,25,12,59,990.52
2021,10,25,13,00,990.65
2021,10,25,13,01,990.59
2021,10,25,13,02,990.62
2021,10,25,13,03,990.69
2021,10,25,13,04,990.72
2021,10,25,13,05,990.76
2021,10,25,13,06,990.72
2021,10,25,13,07,990.79
2021,10,25,13,08,990.69
2021,10,25,13,09,990.79
2021,10,25,13,10,990.76
2021,10,25,13,11,990.82
2021,10,25,13,12,990.79
2021,10,25,13,13,990.86
2021,10,25,13,14,990.89
2021,10,25,13,15,990.96
2021,10,25,13,16,990.93
2021,10,25,13,17,990.96
2021,10,25,13,18,990.96
2021,10,25,13,19,990.96
2021,10,25,13,20,990.99
2021,10,25,13,21,990.96
2021,10,25,13,22,990.89
2021,10,25,13,23,990.93
2021,10,25,13,24,990.86
2021,10,25,13,25,990.89
2021,10,25,13,26,990.82
2021,10,25,13,27,990.89
2021,10,25,13,28,990.96
2021,10,25,13,29,990.99
2021,10,25,13,30,990.99
2021,10,25,13,31,991.03
2021,10,25,13,32,991.03
2021,10,25,13,33,990.89
2021,10,25,13,34,990.86
2021,10,25,13,35,990.79
2021,10,25,13,36,990.79
2021,10,25,13,37,990.79
2021,10,25,13,38,990.89
2021,10,25,13,39,990.79
2021,10,25,13,40,990.79
2021,10,25,13,41,990.76
2021,10,25,13,42,990.79
2021,10,25,13,43,990.69
2021,10,25,13,44,990.76
2021,10,25,13,45,990.79
2021,10,25,13,46,990.79
2021,10,25,13,47,990.86
2021,10,25,13,48,990.89
2021,10,25,13,49,990.96
2021,10,25,13,50,990.96
2021,10,25,13,51,990.89
2021,10,25,13,52,990.99
2021,10,25,13,53,990.93
2021,10,25,13,54,990.96
2021,10,25,13,55,991.06
2021,10,25,13,56,991.03
2021,10,25,13,57,991.13
2021,10,25,13,58,991.09
2021,10,25,13,59,991.03
2021,10,25,14,00,991.33
2021,10,25,14,01,991.33
2021,10,25,14,02,991.23
2021,10,25,14,03,991.33
2021,10,25,14,04,991.30
2021,10,25,14,05,991.33
2021,10,25,14,06,991.30
2021,10,25,14,07,991.33
2021,10,25,14,08,991.37
2021,10,25,14,09,991.33
2021,10,25,14,10,991.40
2021,10,25,14,11,991.40
2021,10,25,14,12,991.37
2021,10,25,14,13,991.37
2021,10,25,14,14,991.40
2021,10,25,14,15,991.47
2021,10,25,14,16,991.47
2021,10,25,14,17,991.63
2021,10,25,14,18,991.57
2021,10,25,14,19,991.57
2021,10,25,14,20,991.60
2021,10,25,14,21,991.60
2021,10,25,14,22,991.60
2021,10,25,14,23,991.70
2021,10,25,14,24,991.74
2021,10,25,14,25,991.70
2021,10,25,14,26,991.67
2021,10,25,14,27,991.77
2021,10,25,14,28,991.67
2021,10,25,14,29,991.64
2021,10,25,14,30,991.64
2021,10,25,14,31,991.64
2021,10,25,14,32,991.74
2021,10,25,14,33,991.77
2021,10,25,14,34,991.84
2021,10,25,14,35,991.94
2021,10,25,14,36,992.01
2021,10,25,14,37,991.98
2021,10,25,14,38,991.98
2021,10,25,14,39,991.98
2021,10,25,14,40,992.04
2021,10,25,14,41,992.04
2021,10,25,14,42,992.18
2021,10,25,14,43,992.14
2021,10,25,14,44,992.14
2021,10,25,14,45,992.11
2021,10,25,14,46,992.11
2021,10,25,14,47,992.18
2021,10,25,14,48,992.11
2021,10,25,14,49,992.04
2021,10,25,14,50,992.08
2021,10,25,14,51,992.08
2021,10,25,14,52,992.11
2021,10,25,14,53,992.14
2021,10,25,14,54,992.14
2021,10,25,14,55,992.11
2021,10,25,14,56,992.11
2021,10,25,14,57,992.08
2021,10,25,14,58,992.04
2021,10,25,14,59,991.98
2021,10,25,15,00,991.98
2021,10,25,15,01,991.98
2021,10,25,15,02,991.98
2021,10,25,15,03,992.04
2021,10,25,15,04,992.21
2021,10,25,15,05,992.28
2021,10,25,15,06,992.28
2021,10,25,15,07,992.35
2021,10,25,15,08,992.42
2021,10,25,15,09,992.55
2021,10,25,15,10,992.55
2021,10,25,15,11,992.62
2021,10,25,15,12,992.65
2021,10,25,15,13,992.65
2021,10,25,15,14,992.69
2021,10,25,15,15,992.62
2021,10,25,15,16,992.65
2021,10,25,15,17,992.72
2021,10,25,15,18,992.58
2021,10,25,15,19,992.58
2021,10,25,15,20,992.58
2021,10,25,15,21,992.58
2021,10,25,15,22,992.69
2021,10,25,15,23,992.75
2021,10,25,15,24,992.72
2021,10,25,15,25,992.75
2021,10,25,15,26,992.82
2021,10,25,15,27,992.79
2021,10,25,15,28,992.82
2021,10,25,15,29,992.96
2021,10,25,15,30,992.99
2021,10,25,15,31,992.96
2021,10,25,15,32,992.89
2021,10,25,15,33,992.86
2021,10,25,15,34,992.96
2021,10,25,15,35,992.89
2021,10,25,15,36,993.13
2021,10,25,15,37,993.26
2021,10,25,15,38,993.06
2021,10,25,15,39,993.23
2021,10,25,15,40,993.10
2021,10,25,15,41,993.26
2021,10,25,15,42,993.23
2021,10,25,15,43,993.23
2021,10,25,15,44,993.23
2021,10,25,15,45,993.23
2021,10,25,15,46,993.30
2021,10,25,15,47,993.30
2021,10,25,15,48,993.26
2021,10,25,15,49,993.19
2021,10,25,15,50,993.26
2021,10,25,15,51,993.33
2021,10,25,15,52,993.26
2021,10,25,15,53,993.33
2021,10,25,15,54,993.30
2021,10,25,15,55,993.33
2021,10,25,15,56,993.30
2021,10,25,15,57,993.33
2021,10,25,15,58,993.33
2021,10,25,15,59,993.26
2021,10,25,16,00,993.30
2021,10,25,16,01,993.26
2021,10,25,16,02,993.26
2021,10,25,16,03,993.36
2021,10,25,16,04,993.33
2021,10,25,16,05,993.43
2021,10,25,16,06,993.43
2021,10,25,16,07,993.36
2021,10,25,16,08,993.50
2021,10,25,16,09,993.47
2021,10,25,16,10,993.59
2021,10,25,16,11,993.50
2021,10,25,16,12,993.50
2021,10,25,16,13,993.50
2021,10,25,16,14,993.50
2021,10,25,16,15,993.57
2021,10,25,16,16,993.60
2021,10,25,16,17,993.63
2021,10,25,16,18,993.67
2021,10,25,16,19,993.74
2021,10,25,16,20,993.77
2021,10,25,16,21,993.77
2021,10,25,16,22,993.67
2021,10,25,16,23,993.63
2021,10,25,16,24,993.63
2021,10,25,16,25,993.77
2021,10,25,16,26,993.77
2021,10,25,16,27,993.80
2021,10,25,16,28,993.84
2021,10,25,16,29,993.84
2021,10,25,16,30,993.87
2021,10,25,16,31,993.91
2021,10,25,16,32,993.94
2021,10,25,16,33,994.04
2021,10,25,16,34,993.97
2021,10,25,16,35,994.01
2021,10,25,16,36,994.14
2021,10,25,16,37,994.04
2021,10,25,16,38,994.14
2021,10,25,16,39,994.14
2021,10,25,16,40,994.21
2021,10,25,16,41,994.21
2021,10,25,16,42,994.24
2021,10,25,16,43,994.28
2021,10,25,16,44,994.28
2021,10,25,16,45,994.28
2021,10,25,16,46,994.28
2021,10,25,16,47,994.24
2021,10,25,16,48,994.24
2021,10,25,16,49,994.24
2021,10,25,16,50,994.31
2021,10,25,16,51,994.38
2021,10,25,16,52,994.35
2021,10,25,16,53,994.31
2021,10,25,16,54,994.35
2021,10,25,16,55,994.35
2021,10,25,16,56,994.31
2021,10,25,16,57,994.38
2021,10,25,16,58,994.48
2021,10,25,16,59,994.38
2021,10,25,17,00,994.45
2021,10,25,17,01,994.38
2021,10,25,17,02,994.48
2021,10,25,17,03,994.41
2021,10,25,17,04,994.45
2021,10,25,17,05,994.48
2021,10,25,17,06,994.48
2021,10,25,17,07,994.52
2021,10,25,17,08,994.52
2021,10,25,17,09,994.48
2021,10,25,17,10,994.55
2021,10,25,17,11,994.52
2021,10,25,17,12,994.58
2021,10,25,17,13,994.55
2021,10,25,17,14,994.55
2021,10,25,17,15,994.55
2021,10,25,17,16,994.58
2021,10,25,17,17,994.58
2021,10,25,17,18,994.65
2021,10,25,17,19,994.72
2021,10,25,17,20,994.62
2021,10,25,17,21,994.62
2021,10,25,17,22,994.58
2021,10,25,17,23,994.68
2021,10,25,17,24,994.65
2021,10,25,17,25,994.75
2021,10,25,17,26,994.79
2021,10,25,17,27,994.82
2021,10,25,17,28,994.85
2021,10,25,17,29,994.79
2021,10,25,17,30,994.72
2021,10,25,17,31,994.82
2021,10,25,17,32,994.85
2021,10,25,17,33,994.85
2021,10,25,17,34,994.82
2021,10,25,17,35,994.85
2021,10,25,17,36,994.85
2021,10,25,17,37,994.92
2021,10,25,17,38,994.89
2021,10,25,17,39,994.82
2021,10,25,17,40,994.89
2021,10,25,17,41,994.92
2021,10,25,17,42,994.96
2021,10,25,17,43,994.99
2021,10,25,17,44,995.06
2021,10,25,17,45,995.09
2021,10,25,17,46,995.09
2021,10,25,17,47,995.19
2021,10,25,17,48,995.19
2021,10,25,17,49,995.12
2021,10,25,17,50,995.19
2021,10,25,17,51,995.26
2021,10,25,17,52,995.26
2021,10,25,17,53,995.26
2021,10,25,17,54,995.26
2021,10,25,17,55,995.26
2021,10,25,17,56,995.29
2021,10,25,17,57,995.23
2021,10,25,17,58,995.26
2021,10,25,17,59,995.26
2021,10,25,18,00,995.29
2021,10,25,18,01,995.33
2021,10,25,18,02,995.29
2021,10,25,18,03,995.40
2021,10,25,18,04,995.33
2021,10,25,18,05,995.40
2021,10,25,18,06,995.40
2021,10,25,18,07,995.43
2021,10,25,18,08,995.46
2021,10,25,18,09,995.46
2021,10,25,18,10,995.50
2021,10,25,18,11,995.50
2021,10,25,18,12,995.53
2021,10,25,18,13,995.53
2021,10,25,18,14,995.53
2021,10,25,18,15,995.53
2021,10,25,18,16,995.63
2021,10,25,18,17,995.60
2021,10,25,18,18,995.63
2021,10,25,18,19,995.56
2021,10,25,18,20,995.67
2021,10,25,18,21,995.60
2021,10,25,18,22,995.70
2021,10,25,18,23,995.63
2021,10,25,18,24,995.70
2021,10,25,18,25,995.67
2021,10,25,18,26,995.70
2021,10,25,18,27,995.67
2021,10,25,18,28,995.77
2021,10,25,18,29,995.70
2021,10,25,18,30,995.63
2021,10,25,18,31,995.84
2021,10,25,18,32,995.73
2021,10,25,18,33,995.77
2021,10,25,18,34,995.73
2021,10,25,18,35,995.70
2021,10,25,18,36,995.77
2021,10,25,18,37,995.84
2021,10,25,18,38,995.84
2021,10,25,18,39,995.87
2021,10,25,18,40,995.87
2021,10,25,18,41,995.90
2021,10,25,18,42,995.94
2021,10,25,18,43,995.97
2021,10,25,18,44,995.87
2021,10,25,18,45,996.01
2021,10,25,18,46,995.94
2021,10,25,18,47,996.04
2021,10,25,18,48,996.07
2021,10,25,18,49,996.04
2021,10,25,18,50,996.11
2021,10,25,18,51,996.14
2021,10,25,18,52,996.07
2021,10,25,18,53,996.21
2021,10,25,18,54,996.14
2021,10,25,18,55,996.11
2021,10,25,18,56,996.17
2021,10,25,18,57,996.21
2021,10,25,18,58,996.24
2021,10,25,18,59,996.28
2021,10,25,19,00,996.34
2021,10,25,19,01,996.34
2021,10,25,19,02,996.24
2021,10,25,19,03,996.31
2021,10,25,19,04,996.47
2021,10,25,19,05,996.48
2021,10,25,19,06,996.51
2021,10,25,19,07,996.38
2021,10,25,19,08,996.51
2021,10,25,19,09,996.51
2021,10,25,19,10,996.55
2021,10,25,19,11,996.61
2021,10,25,19,12,996.51
2021,10,25,19,13,996.72
2021,10,25,19,14,996.68
2021,10,25,19,15,996.72
2021,10,25,19,16,996.75
2021,10,25,19,17,996.78
2021,10,25,19,18,996.68
2021,10,25,19,19,996.78
2021,10,25,19,20,996.85
2021,10,25,19,21,996.72
2021,10,25,19,22,996.75
2021,10,25,19,23,996.75
2021,10,25,19,24,996.85
2021,10,25,19,25,996.85
2021,10,25,19,26,996.95
2021,10,25,19,27,996.95
2021,10,25,19,28,996.85
2021,10,25,19,29,996.85
2021,10,25,19,30,996.89
2021,10,25,19,31,996.99
2021,10,25,19,32,997.16
2021,10,25,19,33,996.99
2021,10,25,19,34,996.92
2021,10,25,19,35,997.05
2021,10,25,19,36,997.05
2021,10,25,19,37,997.02
2021,10,25,19,38,997.05
2021,10,25,19,39,997.19
2021,10,25,19,40,997.12
2021,10,25,19,41,997.19
2021,10,25,19,42,997.22
2021,10,25,19,43,997.19
2021,10,25,19,44,997.29
2021,10,25,19,45,997.22
2021,10,25,19,46,997.26
2021,10,25,19,47,997.33
2021,10,25,19,48,997.29
2021,10,25,19,49,997.33
2021,10,25,19,50,997.26
2021,10,25,19,51,997.29
2021,10,25,19,52,997.33
2021,10,25,19,53,997.39
2021,10,25,19,54,997.39
2021,10,25,19,55,997.39
2021,10,25,19,56,997.39
2021,10,25,19,57,997.50
2021,10,25,19,58,997.50
2021,10,25,19,59,997.53
2021,10,25,20,00,997.53
2021,10,25,20,01,997.50
2021,10,25,20,02,997.56
2021,10,25,20,03,997.60
2021,10,25,20,04,997.63
2021,10,25,20,05,997.66
2021,10,25,20,06,997.60
2021,10,25,20,07,997.56
2021,10,25,20,08,997.63
2021,10,25,20,09,997.73
2021,10,25,20,10,997.70
2021,10,25,20,11,997.77
2021,10,25,20,12,997.80
2021,10,25,20,13,997.87
2021,10,25,20,14,997.90
2021,10,25,20,15,997.97
2021,10,25,20,16,997.97
2021,10,25,20,17,997.94
2021,10,25,20,18,997.87
2021,10,25,20,19,997.94
2021,10,25,20,20,997.87
2021,10,25,20,21,997.83
2021,10,25,20,22,997.90
2021,10,25,20,23,997.90
2021,10,25,20,24,997.90
2021,10,25,20,25,998.00
2021,10,25,20,26,997.94
2021,10,25,20,27,998.04
2021,10,25,20,28,998.00
2021,10,25,20,29,998.10
2021,10,25,20,30,998.07
2021,10,25,20,31,998.07
2021,10,25,20,32,998.07
2021,10,25,20,33,998.07
2021,10,25,20,34,998.24
2021,10,25,20,35,998.14
2021,10,25,20,36,998.07
2021,10,25,20,37,998.17
2021,10,25,20,38,998.14
2021,10,25,20,39,998.17
2021,10,25,20,40,998.24
2021,10,25,20,41,998.17
2021,10,25,20,42,998.14
2021,10,25,20,43,998.14
2021,10,25,20,44,998.21
2021,10,25,20,45,998.14
2021,10,25,20,46,998.17
2021,10,25,20,47,998.24
2021,10,25,20,48,998.27
2021,10,25,20,49,998.34
2021,10,25,20,50,998.27
2021,10,25,20,51,998.24
2021,10,25,20,52,998.24
2021,10,25,20,53,998.27
2021,10,25,20,54,998.24
2021,10,25,20,55,998.27
2021,10,25,20,56,998.24
2021,10,25,20,57,998.24
2021,10,25,20,58,998.27
2021,10,25,20,59,998.27
2021,10,25,21,00,998.31
2021,10,25,21,01,998.31
2021,10,25,21,02,998.41
2021,10,25,21,03,998.41
2021,10,25,21,04,998.44
2021,10,25,21,05,998.48
2021,10,25,21,06,998.61
2021,10,25,21,07,998.54
2021,10,25,21,08,998.54
2021,10,25,21,09,998.65
2021,10,25,21,10,998.68
2021,10,25,21,11,998.71
2021,10,25,21,12,998.75
2021,10,25,21,13,998.78
2021,10,25,21,14,998.71
2021,10,25,21,15,998.78
2021,10,25,21,16,998.82
2021,10,25,21,17,998.88
2021,10,25,21,18,998.88
2021,10,25,21,19,998.95
2021,10,25,21,20,998.95
2021,10,25,21,21,998.95
2021,10,25,21,22,998.92
2021,10,25,21,23,998.99
2021,10,25,21,24,999.02
2021,10,25,21,25,999.02
2021,10,25,21,26,999.02
2021,10,25,21,27,999.05
2021,10,25,21,28,999.15
2021,10,25,21,29,999.19
2021,10,25,21,30,999.19
2021,10,25,21,31,999.29
2021,10,25,21,32,999.32
2021,10,25,21,33,999.32
2021,10,25,21,34,999.32
2021,10,25,21,35,999.36
2021,10,25,21,36,999.39
2021,10,25,21,37,999.39
2021,10,25,21,38,999.52
2021,10,25,21,39,999.66
2021,10,25,21,40,999.59
2021,10,25,21,41,999.56
2021,10,25,21,42,999.59
2021,10,25,21,43,999.66
2021,10,25,21,44,999.73
2021,10,25,21,45,999.73
2021,10,25,21,46,999.70
2021,10,25,21,47,999.76
2021,10,25,21,48,999.73
2021,10,25,21,49,999.73
2021,10,25,21,50,999.73
2021,10,25,21,51,999.80
2021,10,25,21,52,999.76
2021,10,25,21,53,999.76
2021,10,25,21,54,999.80
2021,10,25,21,55,999.83
2021,10,25,21,56,999.90
2021,10,25,21,57,999.93
2021,10,25,21,58,999.97
2021,10,25,21,59,999.97
2021,10,25,22,00,1000.03
2021,10,25,22,01,1000.00
2021,10,25,22,02,1000.07
2021,10,25,22,03,1000.10
2021,10,25,22,04,1000.07
2021,10,25,22,05,1000.10
2021,10,25,22,06,1000.07
2021,10,25,22,07,1000.10
2021,10,25,22,08,1000.14
2021,10,25,22,09,1000.07
2021,10,25,22,10,1000.17
2021,10,25,22,11,1000.17
2021,10,25,22,12,1000.24
2021,10,25,22,13,1000.24
2021,10,25,22,14,1000.27
2021,10,25,22,15,1000.24
2021,10,25,22,16,1000.20
2021,10,25,22,17,1000.17
2021,10,25,22,18,1000.27
2021,10,25,22,19,1000.24
2021,10,25,22,20,1000.27
2021,10,25,22,21,1000.24
2021,10,25,22,22,1000.27
2021,10,25,22,23,1000.31
2021,10,25,22,24,1000.34
2021,10,25,22,25,1000.34
2021,10,25,22,26,1000.31
2021,10,25,22,27,1000.31
2021,10,25,22,28,1000.31
2021,10,25,22,29,1000.34
2021,10,25,22,30,1000.34
2021,10,25,22,31,1000.37
2021,10,25,22,32,1000.34
2021,10,25,22,33,1000.34
2021,10,25,22,34,1000.31
2021,10,25,22,35,1000.34
2021,10,25,22,36,1000.31
2021,10,25,22,37,1000.31
2021,10,25,22,38,1000.31
2021,10,25,22,39,1000.27
2021,10,25,22,40,1000.34
2021,10,25,22,41,1000.34
2021,10,25,22,42,1000.41
2021,10,25,22,43,1000.37
2021,10,25,22,44,1000.44
2021,10,25,22,45,1000.48
2021,10,25,22,46,1000.54